| time (UTC) | temp F | wind direction | speed knots | gust knots | rain 1hr in | rain 24hr in | rain mn in | humidity % | barometer mb |
| 20260906032040 | 71 | 214 | 0.0 | 0.0 | 0.00 | 0.00 | 0.00 | 99 | 1014.8 |
| 20260906031544 | 71 | 293 | 0.0 | 0.0 | 0.00 | 0.00 | 0.00 | 100 | 1014.9 |
| 20260906031040 | 71 | 293 | 0.0 | 0.0 | 0.00 | 0.00 | 0.00 | 99 | 1014.9 |
| 20260906030540 | 71 | 299 | 0.0 | 0.0 | 0.00 | 0.00 | 0.00 | 100 | 1014.8 |
| 20260906030038 | 71 | 300 | 0.0 | 0.0 | 0.00 | 0.00 | 0.00 | 99 | 1014.8 |
| 20260906025536 | 71 | 325 | 0.0 | 0.0 | 0.00 | 0.00 | 0.00 | 99 | 1014.8 |
| 20260906025037 | 71 | 326 | 0.0 | 0.0 | 0.00 | 0.00 | 0.00 | 99 | 1014.8 |
| 20260906024537 | 71 | 325 | 0.0 | 0.0 | 0.00 | 0.00 | 0.00 | 99 | 1014.7 |
| 20260906024034 | 71 | 326 | 0.0 | 0.0 | 0.00 | 0.00 | 0.00 | 99 | 1014.7 |
| 20260906023536 | 71 | 193 | 0.0 | 0.0 | 0.00 | 0.00 | 0.00 | 99 | 1014.5 |
| 20260906023036 | 71 | 193 | 0.0 | 0.0 | 0.00 | 0.00 | 0.00 | 99 | 1014.6 |
| 20260906022532 | 71 | 193 | 0.0 | 0.0 | 0.00 | 0.00 | 0.00 | 99 | 1014.5 |
| 20260906022031 | 72 | 193 | 0.0 | 0.0 | 0.00 | 0.00 | 0.00 | 99 | 1014.3 |
| 20260906021532 | 72 | 193 | 0.0 | 0.0 | 0.00 | 0.00 | 0.00 | 99 | 1014.3 |
| 20260906021029 | 72 | 193 | 0.0 | 0.0 | 0.00 | 0.00 | 0.00 | 98 | 1014.2 |
| 20260906020530 | 72 | 176 | 0.0 | 0.0 | 0.00 | 0.00 | 0.00 | 98 | 1014.2 |
| 20260906020030 | 72 | 127 | 0.0 | 0.0 | 0.00 | 0.00 | 0.00 | 98 | 1013.9 |
| 20260906015528 | 72 | 127 | 0.0 | 0.0 | 0.00 | 0.00 | 0.00 | 98 | 1014.1 |
| 20260906015027 | 72 | 127 | 0.0 | 0.0 | 0.00 | 0.00 | 0.00 | 98 | 1014.1 |
| 20260906014533 | 72 | 127 | 0.0 | 0.0 | 0.00 | 0.00 | 0.00 | 98 | 1014.0 |
| 20260906014025 | 72 | 127 | 0.0 | 0.0 | 0.00 | 0.00 | 0.00 | 98 | 1013.9 |
| 20260906013529 | 73 | 276 | 0.0 | 0.0 | 0.00 | 0.00 | 0.00 | 98 | 1014.0 |
| 20260906013026 | 73 | 277 | 0.0 | 0.0 | 0.00 | 0.00 | 0.00 | 97 | 1014.0 |
| 20260906012524 | 73 | 257 | 0.0 | 0.0 | 0.00 | 0.00 | 0.00 | 97 | 1013.9 |
| 20260906012024 | 73 | 257 | 0.0 | 0.0 | 0.00 | 0.00 | 0.00 | 97 | 1013.9 |
| 20260906011523 | 73 | 257 | 0.0 | 0.0 | 0.00 | 0.00 | 0.00 | 96 | 1013.7 |
| 20260906011023 | 73 | 257 | 0.0 | 0.0 | 0.00 | 0.00 | 0.00 | 96 | 1013.7 |
| 20260906010521 | 74 | 257 | 0.0 | 0.0 | 0.00 | 0.00 | 0.00 | 96 | 1013.6 |
| 20260906010022 | 74 | 257 | 0.0 | 0.0 | 0.00 | 0.00 | 0.00 | 96 | 1013.5 |
| 20260906005524 | 74 | 257 | 0.0 | 0.0 | 0.00 | 0.00 | 0.00 | 96 | 1013.5 |
| 20260906005020 | 74 | 257 | 0.0 | 0.0 | 0.00 | 0.00 | 0.00 | 95 | 1013.5 |
| 20260906004522 | 74 | 257 | 0.0 | 0.0 | 0.00 | 0.00 | 0.00 | 95 | 1013.5 |
| 20260906004018 | 75 | 257 | 0.0 | 0.0 | 0.00 | 0.00 | 0.00 | 94 | 1013.3 |
| 20260906003522 | 75 | 257 | 0.0 | 0.0 | 0.00 | 0.00 | 0.00 | 94 | 1013.1 |
| 20260906003018 | 75 | 257 | 0.0 | 0.0 | 0.00 | 0.00 | 0.00 | 93 | 1013.3 |
| 20260906002523 | 75 | 257 | 0.0 | 0.0 | 0.00 | 0.00 | 0.00 | 93 | 1013.2 |
| 20260906002016 | 76 | 257 | 0.0 | 0.0 | 0.00 | 0.00 | 0.00 | 92 | 1013.1 |
| 20260906001516 | 76 | 257 | 0.0 | 0.0 | 0.00 | 0.00 | 0.00 | 92 | 1013.1 |
| 20260906001014 | 77 | 264 | 0.0 | 0.0 | 0.00 | 0.00 | 0.00 | 91 | 1012.9 |
| 20260906000514 | 77 | 264 | 0.0 | 0.0 | 0.00 | 0.00 | 0.00 | 90 | 1012.9 |
| 20260906000013 | 78 | 264 | 0.0 | 0.0 | 0.00 | 0.00 | 0.00 | 89 | 1012.8 |
| 20260905235515 | 79 | 264 | 0.0 | 0.0 | 0.00 | 0.00 | 0.00 | 87 | 1012.8 |
| 20260905235012 | 79 | 264 | 0.0 | 0.0 | 0.00 | 0.00 | 0.00 | 86 | 1012.9 |
| 20260905234512 | 80 | 264 | 0.0 | 0.0 | 0.00 | 0.00 | 0.00 | 85 | 1012.8 |
| 20260905234013 | 80 | 264 | 0.0 | 0.0 | 0.00 | 0.00 | 0.00 | 84 | 1012.7 |
| 20260905233510 | 81 | 264 | 0.0 | 0.0 | 0.00 | 0.00 | 0.00 | 83 | 1012.6 |
| 20260905233021 | 82 | 264 | 0.0 | 0.0 | 0.00 | 0.00 | 0.00 | 82 | 1012.7 |
| 20260905232514 | 82 | 264 | 0.0 | 0.0 | 0.00 | 0.00 | 0.00 | 79 | 1012.6 |
| 20260905232012 | 83 | 265 | 0.0 | 0.0 | 0.00 | 0.00 | 0.00 | 79 | 1012.6 |
| 20260905231509 | 84 | 252 | 0.0 | 0.0 | 0.00 | 0.00 | 0.00 | 78 | 1012.6 |
| 20260905231011 | 84 | 124 | 0.0 | 0.0 | 0.00 | 0.00 | 0.00 | 75 | 1012.6 |
| 20260905230507 | 84 | 124 | 0.0 | 0.9 | 0.00 | 0.00 | 0.00 | 74 | 1012.5 |
| 20260905230007 | 86 | 167 | 0.0 | 0.0 | 0.00 | 0.00 | 0.00 | 72 | 1012.5 |
| 20260905225506 | 85 | 167 | 0.0 | 0.0 | 0.00 | 0.00 | 0.00 | 74 | 1012.6 |
| 20260905225005 | 84 | 167 | 0.0 | 1.7 | 0.00 | 0.00 | 0.00 | 73 | 1012.5 |
| 20260905224508 | 84 | 167 | 0.0 | 1.7 | 0.00 | 0.00 | 0.00 | 73 | 1012.5 |
| 20260905224004 | 84 | 128 | 0.0 | 0.9 | 0.00 | 0.00 | 0.00 | 73 | 1012.5 |
| 20260905223503 | 85 | 111 | 0.0 | 0.9 | 0.00 | 0.00 | 0.00 | 71 | 1012.3 |
| 20260905223003 | 85 | 57 | 0.0 | 0.9 | 0.00 | 0.00 | 0.00 | 70 | 1012.3 |
| 20260905222503 | 85 | 96 | 0.0 | 2.6 | 0.00 | 0.00 | 0.00 | 70 | 1012.3 |
| 20260905222101 | 85 | 32 | 0.9 | 2.6 | 0.00 | 0.00 | 0.00 | 69 | 1012.3 |
| 20260905221602 | 86 | 31 | 0.0 | 0.9 | 0.00 | 0.00 | 0.00 | 69 | 1012.4 |
| 20260905221059 | 86 | 326 | 0.0 | 0.9 | 0.00 | 0.00 | 0.00 | 67 | 1012.5 |
| 20260905220558 | 87 | 125 | 0.0 | 0.9 | 0.00 | 0.00 | 0.00 | 68 | 1012.5 |
| 20260905220057 | 87 | 148 | 0.0 | 0.9 | 0.00 | 0.00 | 0.00 | 67 | 1012.5 |
| 20260905215557 | 86 | 152 | 0.0 | 1.7 | 0.00 | 0.00 | 0.00 | 68 | 1012.6 |
| 20260905215056 | 85 | 309 | 0.0 | 1.7 | 0.00 | 0.00 | 0.00 | 69 | 1012.6 |
| 20260905214605 | 85 | 167 | 0.0 | 0.9 | 0.00 | 0.00 | 0.00 | 69 | 1012.7 |
| 20260905214053 | 86 | 152 | 0.0 | 0.9 | 0.00 | 0.00 | 0.00 | 67 | 1012.7 |
| 20260905213552 | 85 | 284 | 0.0 | 0.9 | 0.00 | 0.00 | 0.00 | 69 | 1012.7 |
| 20260905213051 | 84 | 284 | 0.0 | 2.6 | 0.00 | 0.00 | 0.00 | 70 | 1012.8 |
| 20260905212551 | 84 | 257 | 0.0 | 3.5 | 0.00 | 0.00 | 0.00 | 70 | 1012.8 |
| 20260905212050 | 84 | 243 | 0.9 | 3.5 | 0.00 | 0.00 | 0.00 | 72 | 1012.9 |
| 20260905211549 | 83 | 296 | 0.0 | 2.6 | 0.00 | 0.00 | 0.00 | 72 | 1012.9 |
| 20260905211048 | 82 | 270 | 0.9 | 2.6 | 0.00 | 0.00 | 0.00 | 72 | 1012.9 |
| 20260905210547 | 82 | 293 | 0.0 | 2.6 | 0.00 | 0.00 | 0.00 | 72 | 1012.9 |
| 20260905210048 | 81 | 195 | 0.0 | 2.6 | 0.00 | 0.00 | 0.00 | 76 | 1012.9 |
| 20260905205545 | 80 | 324 | 0.0 | 2.6 | 0.00 | 0.00 | 0.00 | 76 | 1013.1 |
| 20260905205043 | 80 | 302 | 0.0 | 1.7 | 0.00 | 0.00 | 0.00 | 78 | 1013.1 |
| 20260905204543 | 80 | 60 | 0.0 | 1.7 | 0.00 | 0.00 | 0.00 | 78 | 1013.1 |
| 20260905204041 | 79 | 114 | 0.0 | 0.9 | 0.00 | 0.00 | 0.00 | 80 | 1013.2 |
| 20260905203543 | 78 | 125 | 0.0 | 0.9 | 0.00 | 0.00 | 0.00 | 82 | 1013.3 |
| 20260905203041 | 78 | 136 | 0.0 | 2.6 | 0.00 | 0.00 | 0.00 | 82 | 1013.4 |
| 20260905202640 | 78 | 129 | 0.9 | 2.6 | 0.00 | 0.00 | 0.00 | 81 | 1013.5 |
| 20260905202041 | 78 | 243 | 0.0 | 0.9 | 0.00 | 0.00 | 0.00 | 80 | 1013.8 |
| 20260905201540 | 78 | 239 | 0.0 | 0.9 | 0.00 | 0.00 | 0.00 | 80 | 1013.9 |
| 20260905201037 | 78 | 239 | 0.0 | 0.9 | 0.00 | 0.00 | 0.00 | 80 | 1014.0 |
| 20260905200536 | 78 | 244 | 0.0 | 0.0 | 0.00 | 0.00 | 0.00 | 80 | 1014.0 |
| 20260905200042 | 77 | 181 | 0.0 | 0.9 | 0.00 | 0.00 | 0.00 | 80 | 1013.7 |
| 20260905195538 | 77 | 241 | 0.0 | 0.9 | 0.00 | 0.00 | 0.00 | 80 | 1013.9 |
| 20260905195035 | 77 | 218 | 0.0 | 0.9 | 0.00 | 0.00 | 0.00 | 80 | 1013.8 |
| 20260905194533 | 77 | 252 | 0.0 | 2.6 | 0.00 | 0.00 | 0.00 | 80 | 1013.8 |
| 20260905194033 | 76 | 108 | 0.9 | 2.6 | 0.00 | 0.00 | 0.00 | 79 | 1013.9 |
| 20260905193529 | 76 | 300 | 0.0 | 1.7 | 0.00 | 0.00 | 0.00 | 79 | 1013.9 |
| 20260905193031 | 76 | 166 | 0.0 | 1.7 | 0.00 | 0.00 | 0.00 | 80 | 1014.1 |
| 20260905192528 | 76 | 211 | 0.0 | 4.3 | 0.00 | 0.00 | 0.00 | 81 | 1014.3 |
| 20260905192030 | 76 | 217 | 1.7 | 6.1 | 0.00 | 0.00 | 0.00 | 80 | 1014.0 |
| 20260905191527 | 76 | 284 | 1.7 | 7.0 | 0.00 | 0.00 | 0.00 | 80 | 1014.0 |
| 20260905191028 | 77 | 231 | 0.0 | 7.0 | 0.00 | 0.00 | 0.00 | 79 | 1014.2 |
| 20260905190525 | 78 | 221 | 0.9 | 4.3 | 0.00 | 0.00 | 0.00 | 79 | 1014.3 |
| 20260905190025 | 78 | 157 | 0.0 | 3.5 | 0.00 | 0.00 | 0.00 | 78 | 1014.2 |
| 20260905185523 | 78 | 205 | 0.0 | 8.7 | 0.00 | 0.00 | 0.00 | 77 | 1014.3 |
| 20260905185023 | 79 | 272 | 1.7 | 8.7 | 0.00 | 0.00 | 0.00 | 76 | 1014.2 |
| 20260905184529 | 80 | 257 | 1.7 | 6.1 | 0.00 | 0.00 | 0.00 | 73 | 1014.1 |
| 20260905184025 | 80 | 234 | 0.0 | 4.3 | 0.00 | 0.00 | 0.00 | 71 | 1014.0 |
| 20260905183524 | 81 | 262 | 0.9 | 8.7 | 0.00 | 0.00 | 0.00 | 69 | 1014.1 |
| 20260905183026 | 81 | 307 | 4.3 | 8.7 | 0.00 | 0.00 | 0.00 | 67 | 1013.9 |
| 20260905182519 | 83 | 255 | 1.7 | 6.1 | 0.00 | 0.00 | 0.00 | 65 | 1014.0 |
| 20260905182020 | 84 | 234 | 0.0 | 7.0 | 0.00 | 0.00 | 0.00 | 67 | 1013.9 |
| 20260905181519 | 85 | 126 | 0.9 | 13.0 | 0.00 | 0.00 | 0.00 | 64 | 1013.5 |
| 20260905181017 | 86 | 339 | 5.2 | 13.0 | 0.00 | 0.00 | 0.00 | 59 | 1013.7 |
| 20260905180516 | 88 | 338 | 4.3 | 17.4 | 0.00 | 0.00 | 0.00 | 61 | 1013.6 |
| 20260905180016 | 90 | 332 | 9.6 | 17.4 | 0.00 | 0.00 | 0.00 | 60 | 1013.9 |
| 20260905175514 | 91 | 333 | 6.1 | 12.2 | 0.00 | 0.00 | 0.00 | 60 | 1013.7 |
| 20260905175014 | 92 | 24 | 3.5 | 12.2 | 0.00 | 0.00 | 0.00 | 59 | 1014.0 |
| 20260905174527 | 92 | 67 | 7.0 | 11.3 | 0.00 | 0.00 | 0.00 | 57 | 1014.1 |
| 20260905174011 | 92 | 6 | 7.0 | 11.3 | 0.00 | 0.00 | 0.00 | 57 | 1013.9 |
| 20260905173510 | 92 | 337 | 5.2 | 12.2 | 0.00 | 0.00 | 0.00 | 56 | 1014.2 |
| 20260905173008 | 92 | 321 | 7.0 | 12.2 | 0.00 | 0.00 | 0.00 | 57 | 1014.3 |
| 20260905172508 | 92 | 315 | 6.1 | 12.2 | 0.00 | 0.00 | 0.00 | 57 | 1014.3 |
| 20260905172011 | 92 | 251 | 2.6 | 12.2 | 0.00 | 0.00 | 0.00 | 56 | 1014.4 |
| 20260905171507 | 92 | 284 | 7.0 | 13.0 | 0.00 | 0.00 | 0.00 | 57 | 1014.4 |
| 20260905171009 | 92 | 325 | 7.0 | 13.0 | 0.00 | 0.00 | 0.00 | 57 | 1014.5 |
| 20260905170504 | 92 | 347 | 3.5 | 7.8 | 0.00 | 0.00 | 0.00 | 60 | 1014.4 |
| 20260905170003 | 92 | 334 | 4.3 | 7.8 | 0.00 | 0.00 | 0.00 | 59 | 1014.5 |
| 20260905165501 | 92 | 318 | 0.9 | 2.6 | 0.00 | 0.00 | 0.00 | 62 | 1014.5 |
| 20260905165103 | 92 | 321 | 0.0 | 5.2 | 0.00 | 0.00 | 0.00 | 64 | 1014.3 |
| 20260905164600 | 91 | 301 | 2.6 | 5.2 | 0.00 | 0.00 | 0.00 | 62 | 1014.5 |
| 20260905164058 | 91 | 271 | 0.0 | 5.2 | 0.00 | 0.00 | 0.00 | 62 | 1014.7 |
| 20260905163557 | 91 | 352 | 1.7 | 6.1 | 0.00 | 0.00 | 0.00 | 64 | 1014.6 |
| 20260905163104 | 91 | 54 | 0.9 | 6.1 | 0.00 | 0.00 | 0.00 | 62 | 1014.7 |
| 20260905162557 | 91 | 32 | 0.9 | 7.8 | 0.00 | 0.00 | 0.00 | 63 | 1014.7 |
| 20260905162055 | 91 | 46 | 2.6 | 7.8 | 0.00 | 0.00 | 0.00 | 64 | 1015.0 |
| 20260905161553 | 91 | 58 | 0.0 | 7.0 | 0.00 | 0.00 | 0.00 | 65 | 1015.0 |
| 20260905161053 | 90 | 252 | 0.9 | 7.0 | 0.00 | 0.00 | 0.00 | 64 | 1015.2 |
| 20260905160554 | 91 | 266 | 0.9 | 3.5 | 0.00 | 0.00 | 0.00 | 66 | 1015.2 |
| 20260905160056 | 90 | 253 | 0.0 | 5.2 | 0.00 | 0.00 | 0.00 | 67 | 1015.2 |
| 20260905155549 | 90 | 340 | 2.6 | 5.2 | 0.00 | 0.00 | 0.00 | 66 | 1015.2 |
| 20260905155048 | 90 | 251 | 0.0 | 3.5 | 0.00 | 0.00 | 0.00 | 67 | 1015.3 |
| 20260905154549 | 90 | 30 | 0.0 | 0.0 | 0.00 | 0.00 | 0.00 | 68 | 1015.3 |
| 20260905154046 | 90 | 338 | 0.0 | 0.9 | 0.00 | 0.00 | 0.00 | 69 | 1015.2 |
| 20260905153545 | 90 | 13 | 0.0 | 0.9 | 0.00 | 0.00 | 0.00 | 69 | 1015.2 |
| 20260905153042 | 89 | 134 | 0.0 | 0.9 | 0.00 | 0.00 | 0.00 | 69 | 1015.1 |
| 20260905152541 | 89 | 162 | 0.0 | 0.9 | 0.00 | 0.00 | 0.00 | 71 | 1015.1 |
| 20260905152039 | 88 | 152 | 0.0 | 1.7 | 0.00 | 0.00 | 0.00 | 71 | 1015.1 |
| 20260905151539 | 88 | 271 | 0.0 | 0.9 | 0.00 | 0.00 | 0.00 | 71 | 1015.0 |
| 20260905151041 | 88 | 167 | 0.0 | 0.9 | 0.00 | 0.00 | 0.00 | 71 | 1015.0 |
| 20260905150635 | 88 | 146 | 0.0 | 1.7 | 0.00 | 0.00 | 0.00 | 74 | 1015.0 |
| 20260905150034 | 87 | 231 | 0.0 | 2.6 | 0.00 | 0.00 | 0.00 | 74 | 1015.0 |
| 20260905145535 | 87 | 143 | 0.0 | 2.6 | 0.00 | 0.00 | 0.00 | 72 | 1015.1 |
| 20260905145032 | 87 | 162 | 0.0 | 0.9 | 0.00 | 0.00 | 0.00 | 73 | 1015.0 |
| 20260905144543 | 86 | 350 | 0.0 | 0.9 | 0.00 | 0.00 | 0.00 | 74 | 1015.1 |
| 20260905144028 | 85 | 104 | 0.0 | 1.7 | 0.00 | 0.00 | 0.00 | 75 | 1015.1 |
| 20260905143526 | 85 | 135 | 0.0 | 1.7 | 0.00 | 0.00 | 0.00 | 76 | 1015.2 |
| 20260905143026 | 85 | 91 | 0.0 | 0.0 | 0.00 | 0.00 | 0.00 | 78 | 1015.3 |
| 20260905142523 | 85 | 284 | 0.0 | 0.0 | 0.00 | 0.00 | 0.00 | 78 | 1015.3 |
| 20260905142024 | 84 | 85 | 0.0 | 0.0 | 0.00 | 0.00 | 0.00 | 80 | 1015.4 |
| 20260905141533 | 84 | 67 | 0.0 | 0.9 | 0.00 | 0.00 | 0.00 | 82 | 1015.3 |
| 20260905141018 | 84 | 122 | 0.0 | 0.9 | 0.00 | 0.00 | 0.00 | 82 | 1015.3 |
| 20260905140517 | 83 | 141 | 0.0 | 1.7 | 0.00 | 0.00 | 0.00 | 82 | 1015.2 |
| 20260905140016 | 83 | 114 | 0.0 | 1.7 | 0.00 | 0.00 | 0.00 | 82 | 1015.3 |
| 20260905135514 | 82 | 162 | 0.0 | 0.9 | 0.00 | 0.00 | 0.00 | 85 | 1015.4 |
| 20260905135012 | 81 | 68 | 0.0 | 0.9 | 0.00 | 0.00 | 0.00 | 85 | 1015.3 |
| 20260905134516 | 81 | 155 | 0.0 | 0.9 | 0.00 | 0.00 | 0.00 | 86 | 1015.2 |
| 20260905134009 | 81 | 111 | 0.0 | 0.9 | 0.00 | 0.00 | 0.00 | 87 | 1015.4 |
| 20260905133506 | 80 | 137 | 0.0 | 0.9 | 0.00 | 0.00 | 0.00 | 86 | 1015.5 |
| 20260905133008 | 80 | 106 | 0.0 | 0.9 | 0.00 | 0.00 | 0.00 | 87 | 1015.4 |
| 20260905132506 | 79 | 116 | 0.0 | 0.9 | 0.00 | 0.00 | 0.00 | 86 | 1015.5 |
| 20260905132004 | 80 | 184 | 0.0 | 0.0 | 0.00 | 0.00 | 0.00 | 86 | 1015.4 |
| 20260905131503 | 80 | 195 | 0.0 | 0.0 | 0.00 | 0.00 | 0.00 | 87 | 1015.6 |
| 20260905131003 | 79 | 198 | 0.0 | 0.0 | 0.00 | 0.00 | 0.00 | 86 | 1015.7 |
| 20260905130501 | 79 | 200 | 0.0 | 0.0 | 0.00 | 0.00 | 0.00 | 86 | 1015.7 |
| 20260905130104 | 79 | 198 | 0.0 | 0.0 | 0.00 | 0.00 | 0.00 | 89 | 1015.8 |
| 20260905125559 | 78 | 198 | 0.0 | 0.0 | 0.00 | 0.00 | 0.00 | 88 | 1015.8 |
| 20260905125059 | 79 | 213 | 0.0 | 0.0 | 0.00 | 0.00 | 0.00 | 89 | 1015.8 |
| 20260905124557 | 78 | 214 | 0.0 | 0.0 | 0.00 | 0.00 | 0.00 | 89 | 1015.8 |
| 20260905124055 | 78 | 214 | 0.0 | 0.0 | 0.00 | 0.00 | 0.00 | 91 | 1015.7 |
| 20260905123553 | 77 | 214 | 0.0 | 0.0 | 0.00 | 0.00 | 0.00 | 92 | 1015.7 |
| 20260905123056 | 76 | 214 | 0.0 | 0.0 | 0.00 | 0.00 | 0.00 | 93 | 1015.7 |
| 20260905122549 | 75 | 214 | 0.0 | 0.0 | 0.00 | 0.00 | 0.00 | 95 | 1015.8 |
| 20260905122048 | 74 | 214 | 0.0 | 0.0 | 0.00 | 0.00 | 0.00 | 96 | 1015.8 |
| 20260905121546 | 74 | 214 | 0.0 | 0.0 | 0.00 | 0.00 | 0.00 | 98 | 1015.8 |
| 20260905121046 | 73 | 214 | 0.0 | 0.0 | 0.00 | 0.00 | 0.00 | 98 | 1015.7 |
| 20260905120545 | 72 | 214 | 0.0 | 0.0 | 0.00 | 0.00 | 0.00 | 100 | 1015.6 |
| 20260905120043 | 71 | 214 | 0.0 | 0.0 | 0.00 | 0.00 | 0.00 | 100 | 1015.5 |
| 20260905115545 | 71 | 214 | 0.0 | 0.0 | 0.00 | 0.00 | 0.00 | 100 | 1015.6 |
| 20260905115047 | 71 | 214 | 0.0 | 0.0 | 0.00 | 0.00 | 0.00 | 100 | 1015.4 |
| 20260905114615 | 70 | 214 | 0.0 | 0.0 | 0.00 | 0.00 | 0.00 | 100 | 1015.5 |
| 20260905114041 | 70 | 214 | 0.0 | 0.0 | 0.00 | 0.00 | 0.00 | 100 | 1015.5 |
| 20260905113541 | 69 | 214 | 0.0 | 0.0 | 0.00 | 0.00 | 0.00 | 100 | 1015.4 |
| 20260905113039 | 69 | 214 | 0.0 | 0.0 | 0.00 | 0.00 | 0.00 | 100 | 1015.3 |
| 20260905112539 | 69 | 214 | 0.0 | 0.0 | 0.00 | 0.00 | 0.00 | 100 | 1015.3 |
| 20260905112039 | 69 | 214 | 0.0 | 0.0 | 0.00 | 0.00 | 0.00 | 100 | 1015.2 |
| 20260905111548 | 69 | 214 | 0.0 | 0.0 | 0.00 | 0.00 | 0.00 | 100 | 1015.2 |
| 20260905111038 | 69 | 214 | 0.0 | 0.0 | 0.00 | 0.00 | 0.00 | 100 | 1015.1 |
| 20260905110539 | 69 | 214 | 0.0 | 0.0 | 0.00 | 0.00 | 0.00 | 100 | 1015.1 |
| 20260905110036 | 69 | 214 | 0.0 | 0.0 | 0.00 | 0.00 | 0.00 | 100 | 1015.0 |
| 20260905105636 | 69 | 214 | 0.0 | 0.0 | 0.00 | 0.00 | 0.00 | 100 | 1014.9 |
| 20260905105035 | 69 | 214 | 0.0 | 0.0 | 0.00 | 0.00 | 0.00 | 100 | 1014.8 |
| 20260905104535 | 69 | 214 | 0.0 | 0.0 | 0.00 | 0.00 | 0.00 | 100 | 1014.8 |
| 20260905104035 | 69 | 214 | 0.0 | 0.0 | 0.00 | 0.00 | 0.00 | 100 | 1014.6 |
| 20260905103533 | 69 | 214 | 0.0 | 0.0 | 0.00 | 0.00 | 0.00 | 100 | 1014.6 |
| 20260905103034 | 69 | 214 | 0.0 | 0.0 | 0.00 | 0.00 | 0.00 | 100 | 1014.5 |
| 20260905102532 | 69 | 214 | 0.0 | 0.0 | 0.00 | 0.00 | 0.00 | 100 | 1014.5 |
| 20260905102033 | 70 | 214 | 0.0 | 0.0 | 0.00 | 0.00 | 0.00 | 100 | 1014.5 |
| 20260905101630 | 70 | 214 | 0.0 | 0.0 | 0.00 | 0.00 | 0.00 | 100 | 1014.4 |
| 20260905101027 | 70 | 214 | 0.0 | 0.0 | 0.00 | 0.00 | 0.00 | 100 | 1014.4 |
| 20260905100527 | 70 | 214 | 0.0 | 0.0 | 0.00 | 0.00 | 0.00 | 100 | 1014.4 |
| 20260905100025 | 70 | 214 | 0.0 | 0.0 | 0.00 | 0.00 | 0.00 | 100 | 1014.5 |
| 20260905095524 | 70 | 214 | 0.0 | 0.0 | 0.00 | 0.00 | 0.00 | 100 | 1014.5 |
| 20260905095024 | 70 | 214 | 0.0 | 0.0 | 0.00 | 0.00 | 0.00 | 100 | 1014.4 |
| 20260905094524 | 70 | 214 | 0.0 | 0.0 | 0.00 | 0.00 | 0.00 | 100 | 1014.4 |
| 20260905094021 | 70 | 214 | 0.0 | 0.0 | 0.00 | 0.00 | 0.00 | 100 | 1014.4 |
| 20260905093520 | 70 | 214 | 0.0 | 0.0 | 0.00 | 0.00 | 0.00 | 100 | 1014.5 |
| 20260905093020 | 70 | 262 | 0.0 | 0.0 | 0.00 | 0.00 | 0.00 | 100 | 1014.4 |
| 20260905092521 | 70 | 262 | 0.0 | 0.0 | 0.00 | 0.00 | 0.00 | 100 | 1014.4 |
| 20260905092022 | 70 | 262 | 0.0 | 0.0 | 0.00 | 0.00 | 0.00 | 100 | 1014.4 |
| 20260905091517 | 70 | 262 | 0.0 | 0.9 | 0.00 | 0.00 | 0.00 | 100 | 1014.5 |
| 20260905091016 | 70 | 262 | 0.0 | 0.9 | 0.00 | 0.00 | 0.00 | 100 | 1014.4 |
| 20260905090515 | 70 | 278 | 0.0 | 0.0 | 0.00 | 0.00 | 0.00 | 100 | 1014.4 |
| 20260905090014 | 70 | 279 | 0.0 | 0.0 | 0.00 | 0.00 | 0.00 | 100 | 1014.5 |
| 20260905085518 | 71 | 279 | 0.0 | 0.0 | 0.00 | 0.00 | 0.00 | 100 | 1014.5 |
| 20260905085014 | 71 | 279 | 0.0 | 0.0 | 0.00 | 0.00 | 0.00 | 100 | 1014.5 |
| 20260905084515 | 71 | 279 | 0.0 | 0.0 | 0.00 | 0.00 | 0.00 | 100 | 1014.5 |
| 20260905084010 | 71 | 279 | 0.0 | 0.0 | 0.00 | 0.00 | 0.00 | 100 | 1014.7 |
| 20260905083509 | 71 | 279 | 0.0 | 0.0 | 0.00 | 0.00 | 0.00 | 100 | 1014.7 |
| 20260905083008 | 71 | 279 | 0.0 | 0.0 | 0.00 | 0.00 | 0.00 | 100 | 1014.8 |
| 20260905082507 | 71 | 279 | 0.0 | 0.9 | 0.00 | 0.00 | 0.00 | 100 | 1014.9 |
| 20260905082006 | 71 | 77 | 0.0 | 0.9 | 0.00 | 0.00 | 0.00 | 100 | 1014.8 |
| 20260905081505 | 71 | 145 | 0.0 | 0.0 | 0.00 | 0.00 | 0.00 | 100 | 1014.9 |
| 20260905081003 | 71 | 210 | 0.0 | 0.0 | 0.00 | 0.00 | 0.00 | 100 | 1015.0 |
| 20260905080504 | 71 | 210 | 0.0 | 0.0 | 0.00 | 0.00 | 0.00 | 100 | 1015.0 |
| 20260905080002 | 71 | 210 | 0.0 | 0.0 | 0.00 | 0.00 | 0.00 | 100 | 1015.1 |
| 20260905075601 | 71 | 210 | 0.0 | 0.0 | 0.00 | 0.00 | 0.00 | 100 | 1015.2 |
| 20260905075059 | 71 | 211 | 0.0 | 0.0 | 0.00 | 0.00 | 0.00 | 100 | 1015.2 |
| 20260905074603 | 71 | 211 | 0.0 | 0.0 | 0.00 | 0.00 | 0.00 | 100 | 1015.2 |
| 20260905074100 | 71 | 207 | 0.0 | 0.0 | 0.00 | 0.00 | 0.00 | 100 | 1015.2 |
| 20260905073556 | 71 | 207 | 0.0 | 0.0 | 0.00 | 0.00 | 0.00 | 100 | 1015.2 |
| 20260905073104 | 71 | 207 | 0.0 | 0.0 | 0.00 | 0.00 | 0.00 | 100 | 1015.2 |
| 20260905072554 | 72 | 207 | 0.0 | 0.0 | 0.00 | 0.00 | 0.00 | 100 | 1015.2 |
| 20260905072052 | 72 | 207 | 0.0 | 0.0 | 0.00 | 0.00 | 0.00 | 100 | 1015.3 |
| 20260905071552 | 72 | 207 | 0.0 | 0.0 | 0.00 | 0.00 | 0.00 | 100 | 1015.3 |
| 20260905071054 | 72 | 207 | 0.0 | 0.0 | 0.00 | 0.00 | 0.00 | 100 | 1015.4 |
| 20260905070550 | 72 | 207 | 0.0 | 0.0 | 0.00 | 0.00 | 0.00 | 100 | 1015.3 |
| 20260905070049 | 72 | 207 | 0.0 | 0.0 | 0.00 | 0.00 | 0.00 | 100 | 1015.5 |
| 20260905065549 | 72 | 207 | 0.0 | 0.0 | 0.00 | 0.00 | 0.00 | 100 | 1015.4 |
| 20260905065051 | 72 | 207 | 0.0 | 0.0 | 0.00 | 0.00 | 0.00 | 100 | 1015.5 |
| 20260905064605 | 72 | 207 | 0.0 | 0.0 | 0.00 | 0.00 | 0.00 | 100 | 1015.6 |
| 20260905064045 | 72 | 207 | 0.0 | 0.0 | 0.00 | 0.00 | 0.00 | 100 | 1015.6 |
| 20260905063547 | 72 | 207 | 0.0 | 0.0 | 0.00 | 0.00 | 0.00 | 100 | 1015.8 |
| 20260905063048 | 72 | 207 | 0.0 | 0.0 | 0.00 | 0.00 | 0.00 | 100 | 1015.7 |
| 20260905062543 | 72 | 207 | 0.0 | 0.0 | 0.00 | 0.00 | 0.00 | 100 | 1015.8 |
| 20260905062043 | 72 | 207 | 0.0 | 0.0 | 0.00 | 0.00 | 0.00 | 100 | 1015.8 |
| 20260905061549 | 72 | 206 | 0.0 | 0.0 | 0.00 | 0.00 | 0.00 | 100 | 1015.9 |
| 20260905061042 | 72 | 206 | 0.0 | 0.0 | 0.00 | 0.00 | 0.00 | 100 | 1016.0 |
| 20260905060539 | 73 | 206 | 0.0 | 0.0 | 0.00 | 0.00 | 0.00 | 100 | 1016.1 |
| 20260905060046 | 73 | 206 | 0.0 | 0.0 | 0.00 | 0.00 | 0.00 | 100 | 1016.2 |
| 20260905055537 | 73 | 206 | 0.0 | 0.0 | 0.00 | 0.00 | 0.00 | 100 | 1016.2 |
| 20260905055040 | 73 | 206 | 0.0 | 0.0 | 0.00 | 0.00 | 0.00 | 100 | 1016.3 |
| 20260905054536 | 73 | 212 | 0.0 | 0.0 | 0.00 | 0.00 | 0.00 | 100 | 1016.4 |
| 20260905054035 | 73 | 212 | 0.0 | 0.0 | 0.00 | 0.00 | 0.00 | 100 | 1016.3 |
| 20260905053534 | 73 | 238 | 0.0 | 0.0 | 0.00 | 0.00 | 0.00 | 100 | 1016.5 |
| 20260905053036 | 73 | 238 | 0.0 | 0.9 | 0.00 | 0.00 | 0.00 | 100 | 1016.3 |
| 20260905052632 | 73 | 238 | 0.0 | 0.9 | 0.00 | 0.00 | 0.00 | 100 | 1016.4 |
| 20260905052034 | 73 | 238 | 0.0 | 0.0 | 0.00 | 0.00 | 0.00 | 100 | 1016.4 |
| 20260905051531 | 73 | 238 | 0.0 | 0.0 | 0.00 | 0.00 | 0.00 | 100 | 1016.4 |
| 20260905051029 | 73 | 238 | 0.0 | 0.0 | 0.00 | 0.00 | 0.00 | 100 | 1016.4 |
| 20260905050530 | 74 | 239 | 0.0 | 0.0 | 0.00 | 0.00 | 0.00 | 100 | 1016.4 |
| 20260905050034 | 74 | 239 | 0.0 | 0.0 | 0.00 | 0.00 | 0.00 | 100 | 1016.4 |
| 20260905045528 | 74 | 240 | 0.0 | 0.0 | 0.00 | 0.00 | 0.00 | 100 | 1016.5 |
| 20260905045026 | 74 | 137 | 0.0 | 0.0 | 0.00 | 0.00 | 0.00 | 100 | 1016.4 |
| 20260905044527 | 74 | 137 | 0.0 | 0.0 | 0.00 | 0.00 | 0.00 | 100 | 1016.3 |
| 20260905044028 | 74 | 137 | 0.0 | 0.9 | 0.00 | 0.00 | 0.00 | 100 | 1016.3 |
| 20260905043523 | 74 | 141 | 0.0 | 0.9 | 0.00 | 0.00 | 0.00 | 100 | 1016.4 |
| 20260905043023 | 74 | 257 | 0.0 | 0.0 | 0.00 | 0.00 | 0.00 | 100 | 1016.4 |
| 20260905042522 | 74 | 257 | 0.0 | 0.0 | 0.00 | 0.00 | 0.00 | 100 | 1016.3 |
| 20260905042021 | 74 | 257 | 0.0 | 0.0 | 0.00 | 0.00 | 0.00 | 99 | 1016.3 |
| 20260905041520 | 74 | 257 | 0.0 | 0.0 | 0.00 | 0.00 | 0.00 | 99 | 1016.1 |
| 20260905041019 | 74 | 257 | 0.0 | 0.0 | 0.00 | 0.00 | 0.00 | 99 | 1016.0 |
| 20260905040517 | 74 | 257 | 0.0 | 0.0 | 0.00 | 0.00 | 0.00 | 99 | 1016.1 |
| 20260905040019 | 74 | 257 | 0.0 | 0.0 | 0.00 | 0.00 | 0.00 | 99 | 1016.0 |
| 20260905035615 | 74 | 257 | 0.0 | 0.0 | 0.00 | 0.00 | 0.00 | 99 | 1016.1 |
| 20260905035013 | 74 | 257 | 0.0 | 0.0 | 0.00 | 0.00 | 0.00 | 99 | 1016.1 |
| 20260905034512 | 75 | 257 | 0.0 | 0.0 | 0.00 | 0.00 | 0.00 | 99 | 1016.1 |
| 20260905034013 | 75 | 257 | 0.0 | 0.0 | 0.00 | 0.00 | 0.00 | 99 | 1016.1 |
| 20260905033510 | 75 | 257 | 0.0 | 0.0 | 0.00 | 0.00 | 0.00 | 99 | 1016.1 |
| 20260905033025 | 75 | 257 | 0.0 | 0.9 | 0.00 | 0.00 | 0.00 | 99 | 1015.9 |
| 20260905032509 | 75 | 257 | 0.0 | 0.9 | 0.00 | 0.00 | 0.00 | 99 | 1015.8 |